sat.trackr.live / text

‹ back to catalog

BEIDOU-2 IGSO-2 (C07)

NORAD 37256 · 2010-068A

PAYLOAD ACTIVE UNKNOWN

§ Identity

Operator
Country
PRC
Launch date
2010-12-17
Launch site
XICLF
Launch vehicle
Mass (kg)
RCS (m²)
21.58

Purposes: comms, nav

External: N2YO · Heavens-Above · Gunter

§ Orbital elements

Epoch: 2026-09-10T23:47:02.683392Z

Period
1,436.35 min
Inclination
47.3940°
Eccentricity
0.0057250
Mean motion
1.00254283 rev/d
Perigee alt
35,550.1 km
Apogee alt
36,032.9 km
Semi-major
42,169.6 km
B*
0.0000e+0
RAAN
270.7552°
Arg perigee
216.2433°
Mean anomaly
325.9173°
Rev number
5,765

§ Raw data

BEIDOU-2 IGSO-2 (C07)1 37256U 10068A   26253.99100328 -.00000181  00000+0  00000+0 0  99972 37256  47.3940 270.7552 0057250 216.2433 325.9173  1.00254283 57658

JSON: /api/v1/satellites/37256 · /tle

For live sub-satellite position, see the globe view (requires WebGL).

§ Visibility from observer

Set your observer location to see the next 7 days of passes ≥ 10°. The values pass through the URL so the page stays shareable.

No JS? Fill the form by hand. The geolocation button needs JavaScript.